SL-12 DEB

基本信息
目录编号:
41807
目录名称:
SL-12 DEB
国际标识:
2006-062M
轨道中心:
EARTH
物体状态:
在轨
发射日期:
2006-12-25 UTC
轨道信息
数据来源: 国际轨道数据
星历时间: 2026-07-11T11:11:08+0800
半长轴: 15662.238km
偏心率: 0.5594558
轨道倾角: 64.906°
近地点辐角: 228.320°
升交点赤经: 298.436°
平近点角: 68.223°
近地点: 521.771km
远地点: 18046.431km
周期: 325.118分钟
每日圈数: 4.429167
详细信息
发射场:
TTMTR
轨道高度:
LEO
数据来源:
AOE Integration Group
参考系:
TEME
时间系统:
UTC
历元类型:
SGP4
2D轨道图
3D轨道图
轨道高度分析图
轨道倾角分析图
轨道综合分析图
查看轨道综合分析图